www.pogodaiklimat.ru

Погода и климат >> Архив погоды >> Россия >> Якутия >> Покровск


ПОГОДА в Покровске

  • Прогноз погоды в Покровске
  • Монитор погоды в Покровске
  • Климат города

АРХИВ ПОГОДЫ в Покровске

Время (UTC), дата Ветер
(напр.,м/с)
 
Видим.   Явления Облачность Т
(С)
Тd
(С)
f
(%)
Тe
(С)
Тes
(С)
Комфортность P
(гПа)
Po
(гПа)
Тmin
(С)
Tmax
(С)
R
(мм)
R24
(мм)
S
(см)
06 19.04 С 3 50 км 3/3 600 м
[Cu hum]
+4.8 -11.6 29 +2 +6 1012.7 997.8
09 19.04 СВ 3 50 км 3/3 600 м
[Cu hum]
+4.7 -10.5 32 +2 +3 1013.0 998.1
12 19.04 штиль 0 50 км 3/0
[Ci fib]
+0.3 -8.0 54 -0 -0 1014.4 999.2 +5.4
15 19.04 ЮЗ 1 20 км ясно -6.5 -12.3 63 -9 -9 1015.2 999.6
18 19.04 З 1 20 км ясно -11.1 -13.1 85 -13 -13 1015.3 999.5
21 19.04 С 1 50 км 4/0
[Ci fib]
-11.9 -13.9 85 -14 -14 1015.3 999.4
00 20.04 С 3 50 км 10/0
[Cs]
-2.5 -6.2 76 -7 -4 1013.6 998.3 -12.6 23
03 20.04 С 4 50 км 8/1 1000 м
[Cu hum Ci fib]
+4.2 -4.4 54 0 +5 1011.2 996.3
06 20.04 ЮВ 3 50 км 4/0
[Ac lent Ci fib]
+8.1 -10.0 27 +6 +11 1008.7 994.1
09 20.04 ЮВ 2 50 км 8/3 600 м
[Sc Ac trans]
+8.4 -7.7 31 +7 +8 1007.9 993.2
12 20.04 В 3 50 км 10/4 600 м
[Sc Ac trans Ci fib]
+5.1 -6.7 42 +2 +2 1007.1 992.1 +9.2
15 20.04 СВ 2 20 км 8/6 600 м
[Sc Ac trans]
+3.3 -5.7 52 +1 +1 1005.6 990.8
18 20.04 В 1 20 км 10/6 600 м
[Sc Ci fib]
+2.7 -7.5 47 +2 +2 1004.7 989.9
21 20.04 СВ 2 50 км 10/4 600 м
[Sc Ac trans Ci fib]
+2.9 -7.2 47 +1 +1 1004.7 989.9
00 21.04 В 1 50 км 10/0 600 м
[Ac trans Cs]
+5.2 -8.4 37 +5 +9 1004.8 990.1 +1.7 17
03 21.04 С 2 50 км 10/0
[Ac trans Cs]
+7.8 -6.5 36 +7 +12 1004.7 990.1
06 21.04 Ю 1 50 км 10/0 2000 м
[Ac trans]
+10.5 -4.6 34 +11 +14 1005.0 990.5
09 21.04 В 1 50 км 10/0
[Ac trans]
+7.5 -2.2 50 +7 +8 1006.2 991.6
12 21.04 СВ 1 50 км 10/0 2000 м
[Ac trans]
+5.7 -0.3 65 +5 +5 1007.5 992.7 +10.7
15 21.04 С 3 20 км 10/0
[Ac trans]
+4.2 -0.3 72 +1 +1 1007.4 992.5
18 21.04 СВ 2 20 км 10/0
[Ac trans]
+2.7 -0.5 79 -0 -0 1008.0 993.1
21 21.04 С 3 50 км 8/0
[]
+1.4 -2.1 77 -3 -3 1008.8 993.8 503
00 22.04 С 3 50 км 10/0
[Ac trans Ci fib]
+5.6 -4.7 47 +3 +5 1009.6 994.8 +0.7 11
03 22.04 СВ 4 50 км 10/0
[Ac trans Ci fib]
+9.6 -5.4 34 +7 +12 1010.1 995.5
06 22.04 В 2 50 км 6/3 600 м
[Cu hum Ci fib]
+13.7 -3.7 30 +14 +18 1010.7 996.3
09 22.04 ЮЗ 3 50 км 8/3 600 м
[Cu Sc Ci fib]
+8.7 -0.4 53 +7 +7 1012.5 997.8
12 22.04 З 3 50 км 3/0
[Ac trans]
+6.2 -0.3 63 +3 +3 1015.4 1000.5 +13.7
15 22.04 З 1 20 км ясно +2.9 -0.7 77 +2 +2 1017.1 1002.1
18 22.04 СЗ 2 50 км 3/0
[Ac trans]
+1.1 -1.2 85 -2 -2 1018.4 1003.2
21 22.04 СЗ 3 50 км 3/0
[Ac trans]
+0.6 -1.4 86 -4 -4 1019.4 1004.2
00 23.04 ЮВ 1 50 км 3/0
[Ci fib]
+3.5 -1.2 71 +2 +9 1020.6 1005.5 -0.1 5
03 23.04 В 1 50 км 3/0
[Ci fib]
+7.0 -1.2 56 +7 +18 опасность
простуды
1019.9 1005.1
06 23.04 СВ 2 50 км 10/1 600 м
[Cu hum Ci fib]
+9.6 -3.0 41 +9 +14 1019.5 1004.8
09 23.04 С 2 50 км 10/0
[Ci fib]
+11.2 -3.4 36 +11 +12 1019.2 1004.6
12 23.04 СЗ 4 50 км 10/3 1000 м
[Sc Ci fib]
+7.3 -1.8 52 +4 +4 1020.1 1005.3 +11.4
15 23.04 С 2 20 км 10/0
[Ci fib]
+4.2 -1.9 64 +2 +2 1021.8 1006.7
18 23.04 СЗ 2 50 км 10/8 1000 м
[Sc Ci fib]
+2.5 -4.1 62 -0 -0 1022.7 1007.6
21 23.04 СЗ 1 50 км 10/8 1000 м
[Sc Ci fib]
+1.8 -7.1 52 +1 +1 1023.5 1008.3
00 24.04 З 2 50 км 10/5 600 м
[Cb calv Ac trans Ci fib]
+3.3 -8.9 40 +1 +3 1024.2 1009.1 +1.8 3
03 24.04 ЮЗ 4 50 км 9/3 600 м
[Cu med, cong Ac trans Ci fib]
+5.9 -6.3 41 +3 +6 1023.9 1008.9
06 24.04 ЮЗ 3 50 км 3/0
[Ci fib]
+9.2 -9.2 26 +8 +13 1023.2 1008.4
09 24.04 СЗ 4 50 км 3/0
[Ac trans Ci fib]
+8.1 -8.4 30 +6 +7 1023.5 1008.5
12 24.04 штиль 0 50 км 3/0
[Ci fib]
+2.3 -3.7 65 +2 +2 1024.3 1009.1 +9.6
15 24.04 З 3 20 км ясно -2.7 -7.6 69 -8 -8 1025.2 1009.7
18 24.04 З 3 20 км 3/0
[Ci fib]
-5.8 -8.4 82 -11 -11 1025.5 1009.8
21 24.04 З 2 50 км 3/0
[Ci fib]
-5.5 -7.7 84 -10 -9 1024.8 1009.1
00 25.04 ЮЗ 3 50 км 8/6 1000 м
[Sc As trans Ci fib]
+1.0 -4.3 68 -3 -2 1024.0 1008.8 -6.6 2
03 25.04 ЮЗ 5 50 км 5/3 600 м
[Cu hum Ac trans]
+5.2 -4.9 48 +1 +4 1021.9 1006.9
06 25.04 З 5 50 км 10/10 600 м
[Cu med, cong]
+8.0 -12.8 21 +5 +5 1020.1 1005.3
09 25.04 З 3 50 км 10/10 600 м
[Cu med, cong]
+7.9 -6.3 36 +6 +6 1019.1 1004.3
12 25.04 З 1 50 км 10/10 600 м
[Cu med, cong]
+3.0 -5.8 52 +2 +2 1018.9 1003.8 +9.5
15 25.04 З 2 20 км 4/0 2000 м
[Ac trans]
+0.6 -4.8 67 -3 -3 1017.8 1002.6
18 25.04 З 2 20 км 4/0 2000 м
[Ac trans]
-1.1 -5.4 73 -5 -5 1016.4 1001.2
21 25.04 ЮЗ 2 50 км 3/0
[Ac trans]
-3.4 -5.2 87 -8 -7 1015.1 999.7
00 26.04 В 2 50 км 3/3 600 м
[Cu med, cong]
+3.3 -1.7 70 +1 +5 1013.0 998.0 -4.0
03 26.04 В 2 50 км 10/3 600 м
[Cu med, cong Ci fib]
+5.6 -4.7 47 +4 +10 1010.3 995.5

 

Местоположение метеостанции Покровск (Якутия, Россия): широта 61.48 долгота 129.10 высота над уровнем моря 121 м.

В архиве по умолчанию представлена погода в Покровске за последнюю неделю. Архивные данные за месяц целиком и за предыдущие месяцы, начиная с января 2011 года, Вы можете получить, выбрав интересующий диапазон дат из раскрывающегося списка и нажав кнопку "Ввод!".

Внимание! Время в таблицах - всемирное. Для получения местного времени необходимо прибавить поправку, которая в Покровске равна 9 ч.

Смотрите также архив погоды в соседних городах и на ближайших метеорологических станциях:

Погода в Якутске (Якутия, Россия) (64 км)
Погода в Тегюльте (Якутия, Россия) (122 км)
Погода в Намцах (Якутия, Россия) (140 км)
Погода в Бердигестяхе (Якутия, Россия) (141 км)
Погода в Амге (Якутия, Россия) (163 км)
Погода в Чурапче (Якутия, Россия) (194 км)
Погода в Исите (Якутия, Россия) (217 км)
Погода в Батамае (Якутия, Россия) (227 км)
Погода в Буяге (Якутия, Россия) (232 км)
Погода в Тонгулахе (Якутия, Россия) (247 км)

Пояснения к столбцам:

Ветер - указаны скорость ветра в м/с - средняя за 10 мин, порывы в срок и между сроками (в фигурных скобках) и направление, откуда дует ветер: С - северный, СВ - северо-восточный, В - восточный, ЮВ - юго-восточный, Ю - южный, ЮЗ - юго-западный, З - западный, СЗ - северо-западный.
Видимость - горизонтальная дальность видимости в метрах или километрах. При видимости от 1 до 10 км при отсутствии осадков обычно наблюдается дымка, при ухудшении видимости до 1 км и менее - туман. В сухую погоду видимость может ухудшаться дымом, пылью или мглою.
Явления - указаны атмосферные явления, наблюдавшиеся в срок или в последний час перед сроком; фигурными скобками обозначены явления, наблюдавшиеся между сроками (за 1-3 часа до срока); квадратными скобками обозначены град или гололедные отложения с указанием их диаметра в мм.
Облачность - указаны через наклонную черту общая и нижняя облачность в баллах и высота нижней границы облаков в метрах; квадратными скобками обозначены формы облаков: Ci - перистые, Cs - перисто-слоистые, Cc - перисто-кучевые, Ac - высококучевые, As - высокослоистые, Sc - слоисто-кучевые, Ns - слоисто-дождевые, Cu - кучевые, Cb - кучево-дождевые. Подробнее классификацию облаков см. в Атласе облаков (PDF).
T - Температура воздуха - температура, измеренная на высоте 2 м над землей.
Td - Температура точки росы - температура, при понижении до которой содержащийся в воздухе водяной пар достигнет насыщения.
f - Относительная влажность воздуха - влажноcть воздуха, измеренная на высоте 2 м над землей.
Te - Эффективная температура - температура, которую ощущает одетый по сезону человек в тени. Характеристика душности погоды. При расчете учитывается влияние влажности воздуха и скорости ветра на теплоощущения человека.
Tes - Эффективная температура на солнце - температура, которую ощущает человек, с поправкой на солнечный нагрев. Характеристика знойности погоды. Зависит от высоты солнца над горизонтом, облачности и скорости ветра. Ночью, в пасмурную погоду, а также при ветре 12 м/с и более поправка равна нулю.
P - Атмосферное давление - приведенное к уровню моря атмосферное давление.
Po - Атмосферное давление - измеренное на уровне метеостанции атмосферное давление.
Tmin - Минимальная температура - минимум температуры воздуха на высоте 2 м над землей.
Tmax - Максимальная температура - максимум температуры воздуха на высоте 2 м над землей.
R - Количество осадков - Количество выпавших осадков за период времени, мм. При наведении курсора мыши на число - период времени, за который выпало указанное количество осадков.
R24 - Количество осадков - Количество выпавших осадков за 24 часа, мм.
S - Снежный покров - Высота снежного покрова, см. При наведении курсора мыши на число - состояние снежного покрова и степень покрытия местности в баллах.